contact:dominique.lefevre@mio.osupytheas.fr, maurice.libes@osupytheas.fr, didier.mallarino@osupytheas.fr
Project:EMSO http://www.emso-fr.org/EMSO-France
Depth: 2436.0 m
Title:EMSO Ligure Ouest : Data MII capteur MICROCAT
DateTime_Computer,Latitude,Longitude,Temperature,Conductivity,Pressure,DateTime_Instrument
DateTime_Computer,Latitude,Longitude,degC,S m-1,dbar,DateTime_Instrument
2021-06-01T00:01:33Z,42.805,6.029,13.3006,4.60132,2470.24,2021-6-01T02:02:45Z
2021-06-01T00:04:36Z,42.805,6.029,13.3017,4.60084,2470.287,2021-6-01T02:05:48Z
2021-06-01T00:07:39Z,42.805,6.029,13.3009,4.60067,2470.25,2021-6-01T02:08:51Z
2021-06-01T00:10:42Z,42.805,6.029,13.3041,4.60082,2470.25,2021-6-01T02:11:55Z
2021-06-01T00:13:45Z,42.805,6.029,13.3045,4.60071,2470.25,2021-6-01T02:14:58Z
2021-06-01T00:16:48Z,42.805,6.029,13.3045,4.60074,2470.203,2021-6-01T02:18:01Z
2021-06-01T00:19:51Z,42.805,6.029,13.3080,4.60068,2470.24,2021-6-01T02:21:04Z
2021-06-01T00:22:55Z,42.805,6.029,13.3097,4.60063,2470.227,2021-6-01T02:24:07Z
2021-06-01T00:25:58Z,42.805,6.029,13.3029,4.60087,2470.227,2021-6-01T02:27:10Z
2021-06-01T00:29:01Z,42.805,6.029,13.3043,4.60054,2470.227,2021-6-01T02:30:13Z
2021-06-01T00:32:04Z,42.805,6.029,13.3078,4.60068,2470.287,2021-6-01T02:33:16Z
2021-06-01T00:35:07Z,42.805,6.029,13.3082,4.60061,2470.25,2021-6-01T02:36:19Z
2021-06-01T00:38:10Z,42.805,6.029,13.3079,4.60072,2470.217,2021-6-01T02:39:23Z
2021-06-01T00:41:13Z,42.805,6.029,13.3072,4.60064,2470.273,2021-6-01T02:42:26Z
2021-06-01T00:44:16Z,42.805,6.029,13.3059,4.60061,2470.264,2021-6-01T02:45:29Z
2021-06-01T00:47:20Z,42.805,6.029,13.3066,4.60069,2470.25,2021-6-01T02:48:32Z
2021-06-01T00:50:23Z,42.805,6.029,13.3070,4.60069,2470.217,2021-6-01T02:51:35Z
2021-06-01T00:53:26Z,42.805,6.029,13.3054,4.60069,2470.278,2021-6-01T02:54:38Z
2021-06-01T00:56:29Z,42.805,6.029,13.3051,4.60068,2470.203,2021-6-01T02:57:41Z
2021-06-01T00:59:32Z,42.805,6.029,13.3034,4.60072,2470.24,2021-6-01T03:00:44Z
2021-06-01T01:02:35Z,42.805,6.029,13.3069,4.60059,2470.264,2021-6-01T03:03:48Z
2021-06-01T01:05:38Z,42.805,6.029,13.3082,4.60073,2470.25,2021-6-01T03:06:51Z
2021-06-01T01:08:41Z,42.805,6.029,13.3043,4.60073,2470.264,2021-6-01T03:09:54Z
2021-06-01T01:11:45Z,42.805,6.029,13.3031,4.60085,2470.227,2021-6-01T03:12:57Z
2021-06-01T01:14:48Z,42.805,6.029,13.3060,4.60088,2470.264,2021-6-01T03:16:00Z
2021-06-01T01:17:51Z,42.805,6.029,13.3033,4.60081,2470.25,2021-6-01T03:19:03Z
2021-06-01T01:20:54Z,42.805,6.029,13.3046,4.60077,2470.25,2021-6-01T03:22:06Z
2021-06-01T01:23:57Z,42.805,6.029,13.3055,4.60074,2470.227,2021-6-01T03:25:09Z
2021-06-01T01:27:00Z,42.805,6.029,13.3069,4.60080,2470.264,2021-6-01T03:28:12Z
2021-06-01T01:30:03Z,42.805,6.029,13.3076,4.60079,2470.25,2021-6-01T03:31:16Z
2021-06-01T01:33:06Z,42.805,6.029,13.3078,4.60071,2470.227,2021-6-01T03:34:19Z
2021-06-01T01:36:09Z,42.805,6.029,13.3082,4.60066,2470.24,2021-6-01T03:37:22Z
2021-06-01T01:39:13Z,42.805,6.029,13.3082,4.60072,2470.264,2021-6-01T03:40:25Z
2021-06-01T01:42:16Z,42.805,6.029,13.3079,4.60070,2470.24,2021-6-01T03:43:28Z
2021-06-01T01:45:19Z,42.805,6.029,13.3080,4.60064,2470.227,2021-6-01T03:46:31Z
2021-06-01T01:48:22Z,42.805,6.029,13.3083,4.60070,2470.24,2021-6-01T03:49:34Z
2021-06-01T01:51:25Z,42.805,6.029,13.3084,4.60084,2470.24,2021-6-01T03:52:37Z
2021-06-01T01:54:28Z,42.805,6.029,13.3077,4.60092,2470.227,2021-6-01T03:55:41Z
2021-06-01T01:57:31Z,42.805,6.029,13.3083,4.60062,2470.24,2021-6-01T03:58:44Z
2021-06-01T02:00:34Z,42.805,6.029,13.3089,4.60052,2470.24,2021-6-01T04:01:47Z
2021-06-01T02:03:38Z,42.805,6.029,13.3083,4.60052,2470.24,2021-6-01T04:04:50Z
2021-06-01T02:06:41Z,42.805,6.029,13.3085,4.60059,2470.24,2021-6-01T04:07:53Z
2021-06-01T02:09:44Z,42.805,6.029,13.3084,4.60056,2470.264,2021-6-01T04:10:56Z
2021-06-01T02:12:47Z,42.805,6.029,13.3075,4.60053,2470.227,2021-6-01T04:13:59Z
2021-06-01T02:15:50Z,42.805,6.029,13.3079,4.60059,2470.217,2021-6-01T04:17:02Z
2021-06-01T02:18:53Z,42.805,6.029,13.3075,4.60052,2470.18,2021-6-01T04:20:06Z
2021-06-01T02:21:56Z,42.805,6.029,13.3083,4.60072,2470.24,2021-6-01T04:23:09Z
2021-06-01T02:24:59Z,42.805,6.029,13.3076,4.60046,2470.264,2021-6-01T04:26:12Z
2021-06-01T02:28:03Z,42.805,6.029,13.3079,4.60040,2470.217,2021-6-01T04:29:15Z
2021-06-01T02:31:06Z,42.805,6.029,13.3078,4.60030,2470.217,2021-6-01T04:32:18Z
2021-06-01T02:34:09Z,42.805,6.029,13.3069,4.60036,2470.203,2021-6-01T04:35:21Z
2021-06-01T02:37:12Z,42.805,6.029,13.3067,4.60034,2470.25,2021-6-01T04:38:24Z
2021-06-01T02:40:15Z,42.805,6.029,13.3071,4.60044,2470.227,2021-6-01T04:41:27Z
2021-06-01T02:43:18Z,42.805,6.029,13.3067,4.60037,2470.217,2021-6-01T04:44:31Z
2021-06-01T02:46:21Z,42.805,6.029,13.3073,4.60046,2470.24,2021-6-01T04:47:34Z
2021-06-01T02:49:24Z,42.805,6.029,13.3066,4.60029,2470.194,2021-6-01T04:50:37Z
2021-06-01T02:52:27Z,42.805,6.029,13.3069,4.60044,2470.203,2021-6-01T04:53:40Z
2021-06-01T02:55:31Z,42.805,6.029,13.3067,4.60042,2470.18,2021-6-01T04:56:43Z
2021-06-01T02:58:34Z,42.805,6.029,13.3065,4.60039,2470.194,2021-6-01T04:59:46Z
2021-06-01T03:01:37Z,42.805,6.029,13.3065,4.60054,2470.194,2021-6-01T05:02:49Z
2021-06-01T03:04:40Z,42.805,6.029,13.3072,4.60047,2470.217,2021-6-01T05:05:52Z
2021-06-01T03:07:43Z,42.805,6.029,13.3075,4.60028,2470.217,2021-6-01T05:08:55Z
2021-06-01T03:10:46Z,42.805,6.029,13.3060,4.60033,2470.194,2021-6-01T05:11:59Z
2021-06-01T03:13:49Z,42.805,6.029,13.3055,4.60033,2470.203,2021-6-01T05:15:02Z
2021-06-01T03:16:52Z,42.805,6.029,13.3033,4.60026,2470.227,2021-6-01T05:18:05Z
2021-06-01T03:19:56Z,42.805,6.029,13.3025,4.60029,2470.171,2021-6-01T05:21:08Z
2021-06-01T03:22:59Z,42.805,6.029,13.3019,4.60031,2470.203,2021-6-01T05:24:11Z
2021-06-01T03:26:02Z,42.805,6.029,13.3025,4.60032,2470.194,2021-6-01T05:27:14Z
2021-06-01T03:29:05Z,42.805,6.029,13.3031,4.60024,2470.203,2021-6-01T05:30:17Z
2021-06-01T03:32:08Z,42.805,6.029,13.3039,4.60065,2470.203,2021-6-01T05:33:20Z
2021-06-01T03:35:11Z,42.805,6.029,13.3041,4.60073,2470.203,2021-6-01T05:36:24Z
2021-06-01T03:38:14Z,42.805,6.029,13.3038,4.60039,2470.194,2021-6-01T05:39:27Z
2021-06-01T03:41:17Z,42.805,6.029,13.3036,4.60062,2470.156,2021-6-01T05:42:30Z
2021-06-01T03:44:20Z,42.805,6.029,13.3039,4.60078,2470.217,2021-6-01T05:45:33Z
2021-06-01T03:47:24Z,42.805,6.029,13.3037,4.60058,2470.156,2021-6-01T05:48:36Z
2021-06-01T03:50:27Z,42.805,6.029,13.3051,4.60054,2470.18,2021-6-01T05:51:39Z
2021-06-01T03:53:30Z,42.805,6.029,13.3065,4.60067,2470.18,2021-6-01T05:54:42Z
2021-06-01T03:56:33Z,42.805,6.029,13.3062,4.60084,2470.194,2021-6-01T05:57:45Z
2021-06-01T03:59:36Z,42.805,6.029,13.3039,4.60045,2470.171,2021-6-01T06:00:48Z
2021-06-01T04:02:39Z,42.805,6.029,13.3028,4.60029,2470.147,2021-6-01T06:03:52Z
2021-06-01T04:05:42Z,42.805,6.029,13.3041,4.60061,2470.18,2021-6-01T06:06:55Z
2021-06-01T04:08:45Z,42.805,6.029,13.3036,4.60082,2470.194,2021-6-01T06:09:58Z
2021-06-01T04:11:49Z,42.805,6.029,13.3051,4.60104,2470.171,2021-6-01T06:13:01Z
2021-06-01T04:14:52Z,42.805,6.029,13.3056,4.60086,2470.171,2021-6-01T06:16:04Z
2021-06-01T04:17:55Z,42.805,6.029,13.3056,4.60073,2470.194,2021-6-01T06:19:07Z
2021-06-01T04:20:58Z,42.805,6.029,13.3063,4.60073,2470.171,2021-6-01T06:22:10Z
2021-06-01T04:24:01Z,42.805,6.029,13.3039,4.60084,2470.171,2021-6-01T06:25:13Z
2021-06-01T04:27:04Z,42.805,6.029,13.3062,4.60058,2470.171,2021-6-01T06:28:17Z
2021-06-01T04:30:07Z,42.805,6.029,13.3087,4.60023,2470.171,2021-6-01T06:31:20Z
2021-06-01T04:33:10Z,42.805,6.029,13.3042,4.60082,2470.156,2021-6-01T06:34:23Z
2021-06-01T04:36:13Z,42.805,6.029,13.3058,4.60056,2470.156,2021-6-01T06:37:26Z
2021-06-01T04:39:17Z,42.805,6.029,13.3029,4.60051,2470.147,2021-6-01T06:40:29Z
2021-06-01T04:42:20Z,42.805,6.029,13.3039,4.60092,2470.194,2021-6-01T06:43:32Z
2021-06-01T04:45:23Z,42.805,6.029,13.3042,4.60063,2470.147,2021-6-01T06:46:35Z
2021-06-01T04:48:26Z,42.805,6.029,13.3048,4.60072,2470.18,2021-6-01T06:49:38Z
2021-06-01T04:51:29Z,42.805,6.029,13.3026,4.60061,2470.147,2021-6-01T06:52:41Z
2021-06-01T04:54:32Z,42.805,6.029,13.3055,4.60067,2470.171,2021-6-01T06:55:45Z
2021-06-01T04:57:35Z,42.805,6.029,13.3050,4.60049,2470.171,2021-6-01T06:58:48Z
2021-06-01T05:00:38Z,42.805,6.029,13.3061,4.60092,2470.156,2021-6-01T07:01:51Z
2021-06-01T05:03:42Z,42.805,6.029,13.3056,4.60055,2470.147,2021-6-01T07:04:54Z
2021-06-01T05:06:45Z,42.805,6.029,13.3035,4.60084,2470.171,2021-6-01T07:07:57Z
2021-06-01T05:09:48Z,42.805,6.029,13.3064,4.60088,2470.171,2021-6-01T07:11:00Z
2021-06-01T05:12:51Z,42.805,6.029,13.3036,4.60063,2470.147,2021-6-01T07:14:03Z
2021-06-01T05:15:54Z,42.805,6.029,13.3054,4.60052,2470.133,2021-6-01T07:17:06Z
2021-06-01T05:18:57Z,42.805,6.029,13.3061,4.60108,2470.133,2021-6-01T07:20:10Z
2021-06-01T05:22:00Z,42.805,6.029,13.3060,4.60038,2470.147,2021-6-01T07:23:13Z
2021-06-01T05:25:03Z,42.805,6.029,13.3067,4.60055,2470.133,2021-6-01T07:26:16Z
2021-06-01T05:28:06Z,42.805,6.029,13.3015,4.60077,2470.156,2021-6-01T07:29:19Z
2021-06-01T05:31:10Z,42.805,6.029,13.3019,4.60067,2470.147,2021-6-01T07:32:22Z
2021-06-01T05:34:13Z,42.805,6.029,13.3058,4.60049,2470.147,2021-6-01T07:35:25Z
2021-06-01T05:37:16Z,42.805,6.029,13.3038,4.60061,2470.147,2021-6-01T07:38:28Z
2021-06-01T05:40:19Z,42.805,6.029,13.3038,4.60024,2470.147,2021-6-01T07:41:31Z
2021-06-01T05:43:22Z,42.805,6.029,13.3040,4.60026,2470.1,2021-6-01T07:44:34Z
2021-06-01T05:46:25Z,42.805,6.029,13.3020,4.60050,2470.133,2021-6-01T07:47:38Z
2021-06-01T05:49:28Z,42.805,6.029,13.3021,4.60032,2470.133,2021-6-01T07:50:41Z
2021-06-01T05:52:31Z,42.805,6.029,13.3035,4.60044,2470.11,2021-6-01T07:53:44Z
2021-06-01T05:55:35Z,42.805,6.029,13.3048,4.60048,2470.124,2021-6-01T07:56:47Z
2021-06-01T05:58:38Z,42.805,6.029,13.3055,4.60047,2470.11,2021-6-01T07:59:50Z
2021-06-01T06:01:41Z,42.805,6.029,13.3056,4.60051,2470.133,2021-6-01T08:02:53Z
2021-06-01T06:04:44Z,42.805,6.029,13.3051,4.60032,2470.1,2021-6-01T08:05:56Z
2021-06-01T06:07:47Z,42.805,6.029,13.3051,4.60043,2470.11,2021-6-01T08:08:59Z
2021-06-01T06:10:50Z,42.805,6.029,13.3043,4.60049,2470.133,2021-6-01T08:12:03Z
2021-06-01T06:13:53Z,42.805,6.029,13.3053,4.60049,2470.133,2021-6-01T08:15:06Z
2021-06-01T06:16:56Z,42.805,6.029,13.3028,4.60052,2470.124,2021-6-01T08:18:09Z
2021-06-01T06:20:00Z,42.805,6.029,13.3055,4.60059,2470.124,2021-6-01T08:21:12Z
2021-06-01T06:23:03Z,42.805,6.029,13.3053,4.60040,2470.11,2021-6-01T08:24:15Z
2021-06-01T06:26:06Z,42.805,6.029,13.3038,4.60041,2470.11,2021-6-01T08:27:18Z
2021-06-01T06:29:09Z,42.805,6.029,13.3019,4.60028,2470.087,2021-6-01T08:30:21Z
2021-06-01T06:32:12Z,42.805,6.029,13.3030,4.60033,2470.124,2021-6-01T08:33:24Z
2021-06-01T06:35:15Z,42.805,6.029,13.3028,4.60026,2470.124,2021-6-01T08:36:28Z
2021-06-01T06:38:18Z,42.805,6.029,13.3039,4.60059,2470.124,2021-6-01T08:39:31Z
2021-06-01T06:41:21Z,42.805,6.029,13.3029,4.60053,2470.124,2021-6-01T08:42:34Z
2021-06-01T06:44:24Z,42.805,6.029,13.3031,4.60025,2470.147,2021-6-01T08:45:37Z
2021-06-01T06:47:28Z,42.805,6.029,13.3015,4.60019,2470.124,2021-6-01T08:48:40Z
2021-06-01T06:50:31Z,42.805,6.029,13.3024,4.60019,2470.133,2021-6-01T08:51:43Z
2021-06-01T06:53:34Z,42.805,6.029,13.3027,4.60019,2470.11,2021-6-01T08:54:46Z
2021-06-01T06:56:37Z,42.805,6.029,13.3037,4.60045,2470.077,2021-6-01T08:57:49Z
2021-06-01T06:59:40Z,42.805,6.029,13.3042,4.60046,2470.1,2021-6-01T09:00:52Z
2021-06-01T07:02:43Z,42.805,6.029,13.3043,4.60029,2470.1,2021-6-01T09:03:56Z
2021-06-01T07:05:46Z,42.805,6.029,13.3026,4.60043,2470.087,2021-6-01T09:06:59Z
2021-06-01T07:08:49Z,42.805,6.029,13.3039,4.60026,2470.11,2021-6-01T09:10:02Z
2021-06-01T07:11:53Z,42.805,6.029,13.3030,4.60028,2470.11,2021-6-01T09:13:05Z
2021-06-01T07:14:56Z,42.805,6.029,13.3028,4.60021,2470.147,2021-6-01T09:16:08Z
2021-06-01T07:17:59Z,42.805,6.029,13.3025,4.60030,2470.124,2021-6-01T09:19:11Z
2021-06-01T07:21:02Z,42.805,6.029,13.3039,4.60026,2470.11,2021-6-01T09:22:14Z
2021-06-01T07:24:05Z,42.805,6.029,13.3045,4.60033,2470.11,2021-6-01T09:25:17Z
2021-06-01T07:27:08Z,42.805,6.029,13.3030,4.60040,2470.124,2021-6-01T09:28:21Z
2021-06-01T07:30:11Z,42.805,6.029,13.3031,4.60042,2470.138,2021-6-01T09:31:24Z
2021-06-01T07:33:14Z,42.805,6.029,13.3038,4.60046,2470.147,2021-6-01T09:34:27Z
2021-06-01T07:36:18Z,42.805,6.029,13.3039,4.60033,2470.124,2021-6-01T09:37:30Z
2021-06-01T07:39:21Z,42.805,6.029,13.3037,4.60037,2470.087,2021-6-01T09:40:33Z
2021-06-01T07:42:24Z,42.805,6.029,13.3039,4.60052,2470.11,2021-6-01T09:43:36Z
2021-06-01T07:45:27Z,42.805,6.029,13.3049,4.60044,2470.124,2021-6-01T09:46:39Z
2021-06-01T07:48:30Z,42.805,6.029,13.3035,4.60031,2470.11,2021-6-01T09:49:42Z
2021-06-01T07:51:33Z,42.805,6.029,13.3031,4.60031,2470.11,2021-6-01T09:52:46Z
2021-06-01T07:54:36Z,42.805,6.029,13.3034,4.60027,2470.124,2021-6-01T09:55:49Z
2021-06-01T07:57:39Z,42.805,6.029,13.3041,4.60032,2470.11,2021-6-01T09:58:52Z
2021-06-01T08:00:42Z,42.805,6.029,13.3043,4.60033,2470.133,2021-6-01T10:01:55Z
2021-06-01T08:03:46Z,42.805,6.029,13.3052,4.60044,2470.147,2021-6-01T10:04:58Z
2021-06-01T08:06:49Z,42.805,6.029,13.3049,4.60049,2470.171,2021-6-01T10:08:01Z
2021-06-01T08:09:52Z,42.805,6.029,13.3046,4.60035,2470.147,2021-6-01T10:11:04Z
2021-06-01T08:12:55Z,42.805,6.029,13.3046,4.60034,2470.147,2021-6-01T10:14:07Z
2021-06-01T08:15:58Z,42.805,6.029,13.3034,4.60057,2470.124,2021-6-01T10:17:10Z
2021-06-01T08:19:01Z,42.805,6.029,13.3046,4.60052,2470.11,2021-6-01T10:20:14Z
2021-06-01T08:22:04Z,42.805,6.029,13.3056,4.60028,2470.11,2021-6-01T10:23:17Z
2021-06-01T08:25:07Z,42.805,6.029,13.3054,4.60034,2470.087,2021-6-01T10:26:20Z
2021-06-01T08:28:11Z,42.805,6.029,13.3046,4.60041,2470.124,2021-6-01T10:29:23Z
2021-06-01T08:31:14Z,42.805,6.029,13.3053,4.60033,2470.124,2021-6-01T10:32:26Z
2021-06-01T08:34:17Z,42.805,6.029,13.3041,4.60046,2470.133,2021-6-01T10:35:29Z
2021-06-01T08:37:20Z,42.805,6.029,13.3022,4.60054,2470.147,2021-6-01T10:38:32Z
2021-06-01T08:40:23Z,42.805,6.029,13.3040,4.60041,2470.11,2021-6-01T10:41:35Z
2021-06-01T08:43:26Z,42.805,6.029,13.3061,4.60039,2470.156,2021-6-01T10:44:39Z
2021-06-01T08:46:29Z,42.805,6.029,13.3047,4.60041,2470.147,2021-6-01T10:47:42Z
2021-06-01T08:49:32Z,42.805,6.029,13.3038,4.60036,2470.11,2021-6-01T10:50:45Z
2021-06-01T08:52:36Z,42.805,6.029,13.3053,4.60028,2470.124,2021-6-01T10:53:48Z
2021-06-01T08:55:39Z,42.805,6.029,13.3017,4.60041,2470.156,2021-6-01T10:56:51Z
2021-06-01T08:58:42Z,42.805,6.029,13.3029,4.60049,2470.147,2021-6-01T10:59:54Z
2021-06-01T09:01:45Z,42.805,6.029,13.3006,4.60074,2470.133,2021-6-01T11:02:57Z
2021-06-01T09:04:48Z,42.805,6.029,13.3019,4.60046,2470.133,2021-6-01T11:06:00Z
2021-06-01T09:07:51Z,42.805,6.029,13.2997,4.60077,2470.171,2021-6-01T11:09:04Z
2021-06-01T09:10:54Z,42.805,6.029,13.3067,4.60049,2470.147,2021-6-01T11:12:07Z
2021-06-01T09:13:57Z,42.805,6.029,13.3036,4.60055,2470.171,2021-6-01T11:15:10Z
2021-06-01T09:17:01Z,42.805,6.029,13.3041,4.60056,2470.171,2021-6-01T11:18:13Z
2021-06-01T09:20:04Z,42.805,6.029,13.3025,4.60046,2470.194,2021-6-01T11:21:16Z
2021-06-01T09:23:07Z,42.805,6.029,13.3020,4.60037,2470.133,2021-6-01T11:24:19Z
2021-06-01T09:26:10Z,42.805,6.029,13.3000,4.60040,2470.124,2021-6-01T11:27:22Z
2021-06-01T09:29:13Z,42.805,6.029,13.3016,4.60043,2470.156,2021-6-01T11:30:25Z
2021-06-01T09:32:16Z,42.805,6.029,13.3037,4.60045,2470.156,2021-6-01T11:33:29Z
2021-06-01T09:35:19Z,42.805,6.029,13.3037,4.60044,2470.156,2021-6-01T11:36:32Z
2021-06-01T09:38:22Z,42.805,6.029,13.3026,4.60022,2470.156,2021-6-01T11:39:35Z
2021-06-01T09:41:26Z,42.805,6.029,13.3003,4.60027,2470.147,2021-6-01T11:42:38Z
2021-06-01T09:44:29Z,42.805,6.029,13.3067,4.60041,2470.194,2021-6-01T11:45:41Z
2021-06-01T09:47:32Z,42.805,6.029,13.2989,4.60056,2470.166,2021-6-01T11:48:44Z
2021-06-01T09:50:35Z,42.805,6.029,13.2993,4.60026,2470.147,2021-6-01T11:51:47Z
2021-06-01T09:53:38Z,42.805,6.029,13.2993,4.60021,2470.18,2021-6-01T11:54:50Z
2021-06-01T09:56:41Z,42.805,6.029,13.2996,4.60049,2470.133,2021-6-01T11:57:54Z
2021-06-01T09:59:44Z,42.805,6.029,13.2992,4.60037,2470.171,2021-6-01T12:00:57Z
2021-06-01T10:02:47Z,42.805,6.029,13.2991,4.60039,2470.133,2021-6-01T12:04:00Z
2021-06-01T10:05:51Z,42.805,6.029,13.2993,4.60031,2470.171,2021-6-01T12:07:03Z
2021-06-01T10:08:54Z,42.805,6.029,13.2991,4.60026,2470.147,2021-6-01T12:10:06Z
2021-06-01T10:11:57Z,42.805,6.029,13.2986,4.60035,2470.133,2021-6-01T12:13:09Z
2021-06-01T10:15:00Z,42.805,6.029,13.2988,4.60026,2470.147,2021-6-01T12:16:12Z
2021-06-01T10:18:03Z,42.805,6.029,13.2987,4.60029,2470.156,2021-6-01T12:19:15Z
2021-06-01T10:21:06Z,42.805,6.029,13.2993,4.60025,2470.171,2021-6-01T12:22:19Z
2021-06-01T10:24:09Z,42.805,6.029,13.2989,4.60029,2470.171,2021-6-01T12:25:22Z
2021-06-01T10:27:12Z,42.805,6.029,13.3035,4.60057,2470.156,2021-6-01T12:28:25Z
2021-06-01T10:30:16Z,42.805,6.029,13.3045,4.60036,2470.194,2021-6-01T12:31:28Z
2021-06-01T10:33:19Z,42.805,6.029,13.3044,4.60043,2470.11,2021-6-01T12:34:31Z
2021-06-01T10:36:22Z,42.805,6.029,13.3033,4.60055,2470.18,2021-6-01T12:37:34Z
2021-06-01T10:39:25Z,42.805,6.029,13.3024,4.60044,2470.171,2021-6-01T12:40:37Z
2021-06-01T10:42:28Z,42.805,6.029,13.3058,4.60058,2470.156,2021-6-01T12:43:40Z
2021-06-01T10:45:31Z,42.805,6.029,13.3018,4.60034,2470.156,2021-6-01T12:46:44Z
2021-06-01T10:48:34Z,42.805,6.029,13.2994,4.60051,2470.171,2021-6-01T12:49:47Z
2021-06-01T10:51:37Z,42.805,6.029,13.2983,4.60039,2470.171,2021-6-01T12:52:50Z
2021-06-01T10:54:40Z,42.805,6.029,13.2987,4.60027,2470.133,2021-6-01T12:55:53Z
2021-06-01T10:57:44Z,42.805,6.029,13.2987,4.60018,2470.156,2021-6-01T12:58:56Z
2021-06-01T11:00:47Z,42.805,6.029,13.2994,4.60015,2470.133,2021-6-01T13:01:59Z
2021-06-01T11:03:50Z,42.805,6.029,13.2984,4.60021,2470.133,2021-6-01T13:05:02Z
2021-06-01T11:06:53Z,42.805,6.029,13.3045,4.60029,2470.156,2021-6-01T13:08:05Z
2021-06-01T11:09:56Z,42.805,6.029,13.3010,4.60033,2470.171,2021-6-01T13:11:08Z
2021-06-01T11:12:59Z,42.805,6.029,13.3046,4.60041,2470.194,2021-6-01T13:14:12Z
2021-06-01T11:16:02Z,42.805,6.029,13.3069,4.60037,2470.18,2021-6-01T13:17:15Z
2021-06-01T11:19:05Z,42.805,6.029,13.3002,4.60039,2470.147,2021-6-01T13:20:18Z
2021-06-01T11:22:09Z,42.805,6.029,13.3036,4.60051,2470.171,2021-6-01T13:23:21Z
2021-06-01T11:25:12Z,42.805,6.029,13.3058,4.60046,2470.194,2021-6-01T13:26:24Z
2021-06-01T11:28:15Z,42.805,6.029,13.3037,4.60052,2470.156,2021-6-01T13:29:27Z
2021-06-01T11:31:18Z,42.805,6.029,13.3011,4.60023,2470.171,2021-6-01T13:32:30Z
2021-06-01T11:34:21Z,42.805,6.029,13.3037,4.60047,2470.194,2021-6-01T13:35:33Z
2021-06-01T11:37:24Z,42.805,6.029,13.2998,4.60031,2470.171,2021-6-01T13:38:37Z
2021-06-01T11:40:27Z,42.805,6.029,13.2990,4.60025,2470.147,2021-6-01T13:41:40Z
2021-06-01T11:43:30Z,42.805,6.029,13.2992,4.60019,2470.194,2021-6-01T13:44:43Z
2021-06-01T11:46:34Z,42.805,6.029,13.2990,4.60014,2470.194,2021-6-01T13:47:46Z
2021-06-01T11:49:37Z,42.805,6.029,13.3026,4.60036,2470.171,2021-6-01T13:50:49Z
2021-06-01T11:52:40Z,42.805,6.029,13.3006,4.60037,2470.194,2021-6-01T13:53:52Z
2021-06-01T11:55:43Z,42.805,6.029,13.2994,4.60036,2470.171,2021-6-01T13:56:55Z
2021-06-01T11:58:46Z,42.805,6.029,13.2991,4.60039,2470.18,2021-6-01T13:59:58Z
2021-06-01T12:01:49Z,42.805,6.029,13.2993,4.60035,2470.194,2021-6-01T14:03:02Z
2021-06-01T12:04:52Z,42.805,6.029,13.3043,4.60045,2470.133,2021-6-01T14:06:05Z
2021-06-01T12:07:55Z,42.805,6.029,13.3000,4.60035,2470.133,2021-6-01T14:09:08Z
2021-06-01T12:10:59Z,42.805,6.029,13.3004,4.60038,2470.18,2021-6-01T14:12:11Z
2021-06-01T12:14:02Z,42.805,6.029,13.2984,4.60027,2470.171,2021-6-01T14:15:14Z
2021-06-01T12:17:05Z,42.805,6.029,13.3013,4.60053,2470.133,2021-6-01T14:18:17Z
2021-06-01T12:20:08Z,42.805,6.029,13.2993,4.60027,2470.18,2021-6-01T14:21:20Z
2021-06-01T12:23:11Z,42.805,6.029,13.2993,4.60029,2470.156,2021-6-01T14:24:23Z
2021-06-01T12:26:14Z,42.805,6.029,13.2992,4.60026,2470.147,2021-6-01T14:27:27Z
2021-06-01T12:29:17Z,42.805,6.029,13.3008,4.60045,2470.133,2021-6-01T14:30:30Z
2021-06-01T12:32:20Z,42.805,6.029,13.3011,4.60026,2470.133,2021-6-01T14:33:33Z
2021-06-01T12:35:24Z,42.805,6.029,13.2996,4.60035,2470.156,2021-6-01T14:36:36Z
2021-06-01T12:38:27Z,42.805,6.029,13.3044,4.60020,2470.18,2021-6-01T14:39:39Z
2021-06-01T12:41:30Z,42.805,6.029,13.3036,4.60044,2470.171,2021-6-01T14:42:42Z
2021-06-01T12:44:33Z,42.805,6.029,13.3043,4.60034,2470.18,2021-6-01T14:45:45Z
2021-06-01T12:47:36Z,42.805,6.029,13.3018,4.60057,2470.18,2021-6-01T14:48:48Z
2021-06-01T12:50:39Z,42.805,6.029,13.3053,4.60046,2470.156,2021-6-01T14:51:52Z
2021-06-01T12:53:42Z,42.805,6.029,13.3027,4.60050,2470.133,2021-6-01T14:54:55Z
2021-06-01T12:56:45Z,42.805,6.029,13.3039,4.60041,2470.11,2021-6-01T14:57:58Z
2021-06-01T12:59:49Z,42.805,6.029,13.3033,4.60044,2470.194,2021-6-01T15:01:01Z
2021-06-01T13:02:52Z,42.805,6.029,13.3047,4.60056,2470.18,2021-6-01T15:04:04Z
2021-06-01T13:05:55Z,42.805,6.029,13.3041,4.60046,2470.171,2021-6-01T15:07:07Z
2021-06-01T13:08:58Z,42.805,6.029,13.3039,4.60039,2470.156,2021-6-01T15:10:10Z
2021-06-01T13:12:01Z,42.805,6.029,13.3040,4.60029,2470.156,2021-6-01T15:13:13Z
2021-06-01T13:15:04Z,42.805,6.029,13.3050,4.60034,2470.171,2021-6-01T15:16:16Z
2021-06-01T13:18:07Z,42.805,6.029,13.3029,4.60035,2470.156,2021-6-01T15:19:20Z
2021-06-01T13:21:10Z,42.805,6.029,13.3038,4.60026,2470.18,2021-6-01T15:22:23Z
2021-06-01T13:24:13Z,42.805,6.029,13.3054,4.60039,2470.171,2021-6-01T15:25:26Z
2021-06-01T13:27:17Z,42.805,6.029,13.3034,4.60030,2470.156,2021-6-01T15:28:29Z
2021-06-01T13:30:20Z,42.805,6.029,13.3024,4.60035,2470.171,2021-6-01T15:31:32Z
2021-06-01T13:33:23Z,42.805,6.029,13.3011,4.60034,2470.133,2021-6-01T15:34:35Z
2021-06-01T13:36:26Z,42.805,6.029,13.3010,4.60033,2470.133,2021-6-01T15:37:38Z
2021-06-01T13:39:29Z,42.805,6.029,13.3056,4.60029,2470.194,2021-6-01T15:40:42Z
2021-06-01T13:42:32Z,42.805,6.029,13.3026,4.60062,2470.18,2021-6-01T15:43:45Z
2021-06-01T13:45:35Z,42.805,6.029,13.3021,4.60046,2470.194,2021-6-01T15:46:48Z
2021-06-01T13:48:38Z,42.805,6.029,13.3036,4.60059,2470.203,2021-6-01T15:49:51Z
2021-06-01T13:51:42Z,42.805,6.029,13.3030,4.60046,2470.156,2021-6-01T15:52:54Z
2021-06-01T13:54:45Z,42.805,6.029,13.3036,4.60049,2470.194,2021-6-01T15:55:57Z
2021-06-01T13:57:48Z,42.805,6.029,13.3012,4.60031,2470.171,2021-6-01T15:59:00Z
2021-06-01T14:00:51Z,42.805,6.029,13.3004,4.60057,2470.133,2021-6-01T16:02:03Z
2021-06-01T14:03:54Z,42.805,6.029,13.3018,4.60036,2470.194,2021-6-01T16:05:06Z
2021-06-01T14:06:57Z,42.805,6.029,13.3006,4.60039,2470.171,2021-6-01T16:08:10Z
2021-06-01T14:10:00Z,42.805,6.029,13.3010,4.60036,2470.194,2021-6-01T16:11:13Z
2021-06-01T14:13:03Z,42.805,6.029,13.3033,4.60051,2470.156,2021-6-01T16:14:16Z
2021-06-01T14:16:07Z,42.805,6.029,13.3031,4.60043,2470.194,2021-6-01T16:17:19Z
2021-06-01T14:19:10Z,42.805,6.029,13.3031,4.60027,2470.194,2021-6-01T16:20:22Z
2021-06-01T14:22:13Z,42.805,6.029,13.2996,4.60042,2470.194,2021-6-01T16:23:25Z
2021-06-01T14:25:16Z,42.805,6.029,13.2996,4.60044,2470.194,2021-6-01T16:26:28Z
2021-06-01T14:28:19Z,42.805,6.029,13.3037,4.60082,2470.171,2021-6-01T16:29:31Z
2021-06-01T14:31:22Z,42.805,6.029,13.3056,4.60045,2470.18,2021-6-01T16:32:35Z
2021-06-01T14:34:25Z,42.805,6.029,13.2998,4.60056,2470.156,2021-6-01T16:35:38Z
2021-06-01T14:37:28Z,42.805,6.029,13.3036,4.60058,2470.156,2021-6-01T16:38:41Z
2021-06-01T14:40:32Z,42.805,6.029,13.2988,4.60028,2470.171,2021-6-01T16:41:44Z
2021-06-01T14:43:35Z,42.805,6.029,13.2998,4.60046,2470.171,2021-6-01T16:44:47Z
2021-06-01T14:46:38Z,42.805,6.029,13.2995,4.60035,2470.194,2021-6-01T16:47:50Z
2021-06-01T14:49:41Z,42.805,6.029,13.3017,4.60033,2470.194,2021-6-01T16:50:53Z
2021-06-01T14:52:44Z,42.805,6.029,13.2989,4.60042,2470.133,2021-6-01T16:53:56Z
2021-06-01T14:55:47Z,42.805,6.029,13.2989,4.60026,2470.147,2021-6-01T16:57:00Z
2021-06-01T14:58:50Z,42.805,6.029,13.2991,4.60007,2470.171,2021-6-01T17:00:03Z
2021-06-01T15:01:53Z,42.805,6.029,13.2989,4.60007,2470.18,2021-6-01T17:03:06Z
2021-06-01T15:04:57Z,42.805,6.029,13.2989,4.60003,2470.194,2021-6-01T17:06:09Z
2021-06-01T15:08:00Z,42.805,6.029,13.2986,4.60012,2470.171,2021-6-01T17:09:12Z
2021-06-01T15:11:03Z,42.805,6.029,13.2988,4.60003,2470.147,2021-6-01T17:12:15Z